AFL792 WADD-ULLI

Flight info

Callsign AFL792
Flight time N/A
Altitude 34000
Route KOLTA G464 PNK N875 ENREP N891 BKK L507 CEA R460 GGC L509 HANGU G796 LAJAK L509 TAPIS M875 MILSO M161 DENUD T784 ROKUR P164 PINOK N50 GENPA
Aircraft A359/H-SDE2E3GHIJ3J4J5LM1ORWXY/LB1D1

Departure

Time 2026-04-27 18:51
Airport Denpasar I Gusti Ngurah Rai International Airport (WADD)

Arrival

Time N/A
Airport Pulkovo Airport (ULLI)
Time Latitude Longitude Altitude Speed Heading
2026-04-27 18:39 -8.74538 115.17206 39 ft 0 kts 358°
2026-04-27 18:41 -8.74548 115.17206 39 ft 4 kts 359°
2026-04-27 18:41 -8.74576 115.17206 39 ft 4 kts
2026-04-27 18:42 -8.74603 115.17203 36 ft 4 kts 11°
2026-04-27 18:42 -8.74620 115.17199 35 ft 4 kts 17°
2026-04-27 18:42 -8.74652 115.17184 35 ft 4 kts 48°
2026-04-27 18:42 -8.74661 115.17168 35 ft 1 kts 87°
2026-04-27 18:43 -8.74661 115.17164 35 ft 0 kts 87°
2026-04-27 18:45 -8.74660 115.17183 34 ft 6 kts 87°
2026-04-27 18:45 -8.74657 115.17244 38 ft 10 kts 87°
2026-04-27 18:46 -8.74654 115.17315 38 ft 10 kts 87°
2026-04-27 18:46 -8.74650 115.17388 38 ft 10 kts 87°
2026-04-27 18:46 -8.74647 115.17462 38 ft 11 kts 88°
2026-04-27 18:46 -8.74645 115.17537 38 ft 11 kts 88°
2026-04-27 18:47 -8.74642 115.17611 38 ft 11 kts 88°
2026-04-27 18:47 -8.74639 115.17686 39 ft 11 kts 88°
2026-04-27 18:47 -8.74636 115.17761 39 ft 11 kts 88°
2026-04-27 18:47 -8.74633 115.17837 39 ft 11 kts 88°
2026-04-27 18:48 -8.74629 115.17914 39 ft 11 kts 88°
2026-04-27 18:48 -8.74626 115.17994 38 ft 11 kts 88°
2026-04-27 18:48 -8.74627 115.18043 38 ft 9 kts 98°
2026-04-27 18:48 -8.74683 115.18093 37 ft 9 kts 171°
2026-04-27 18:49 -8.74756 115.18093 35 ft 11 kts 195°
2026-04-27 18:49 -8.74786 115.18056 35 ft 6 kts 254°
2026-04-27 18:49 -8.74790 115.18018 36 ft 0 kts 267°
2026-04-27 18:50 -8.74790 115.18014 36 ft 3 kts 267°
2026-04-27 18:50 -8.74799 115.17787 34 ft 69 kts 268°
2026-04-27 18:50 -8.74828 115.17057 34 ft 137 kts 268°
2026-04-27 18:50 -8.74878 115.15900 125 ft 185 kts 268°
2026-04-27 18:51 -8.74919 115.14585 853 ft 186 kts 271°
2026-04-27 18:51 -8.74875 115.13267 1440 ft 191 kts 271°
2026-04-27 18:51 -8.74826 115.11881 1617 ft 204 kts 271°
2026-04-27 18:51 -8.74793 115.10401 1766 ft 218 kts 270°
2026-04-27 18:52 -8.74773 115.08813 1876 ft 235 kts 271°
2026-04-27 18:52 -8.74759 115.07099 2005 ft 252 kts 270°
2026-04-27 18:52 -8.74748 115.05277 2186 ft 266 kts 269°
2026-04-27 18:53 -8.74731 115.01456 3003 ft 275 kts 270°
2026-04-27 18:53 -8.74723 114.99515 3446 ft 278 kts 269°
2026-04-27 18:53 -8.74715 114.97550 3872 ft 281 kts 269°
2026-04-27 18:53 -8.74708 114.95570 4302 ft 283 kts 269°
2026-04-27 18:54 -8.74700 114.93568 4734 ft 286 kts 269°
2026-04-27 18:54 -8.74695 114.91549 5171 ft 288 kts 269°
2026-04-27 18:54 -8.74797 114.89519 5581 ft 291 kts 264°
2026-04-27 18:54 -8.74962 114.87484 6051 ft 292 kts 264°
2026-04-27 18:55 -8.75124 114.85431 6477 ft 294 kts 264°
2026-04-27 18:55 -8.75278 114.83363 6884 ft 296 kts 264°
2026-04-27 18:55 -8.75426 114.81286 7319 ft 297 kts 265°
2026-04-27 18:55 -8.75571 114.79201 7733 ft 300 kts 265°
2026-04-27 18:56 -8.75716 114.77088 8160 ft 301 kts 265°
2026-04-27 18:56 -8.75860 114.74966 8578 ft 303 kts 265°
2026-04-27 18:56 -8.76004 114.72834 9009 ft 305 kts 265°
2026-04-27 18:56 -8.76152 114.70687 9427 ft 307 kts 265°
2026-04-27 18:57 -8.76295 114.68527 9853 ft 309 kts 265°
2026-04-27 18:57 -8.76439 114.66343 10152 ft 315 kts 265°
2026-04-27 18:57 -8.76587 114.64099 10313 ft 326 kts 265°
2026-04-27 18:57 -8.76741 114.61773 10464 ft 337 kts 265°
2026-04-27 18:58 -8.76900 114.59372 10618 ft 348 kts 265°
2026-04-27 18:58 -8.77025 114.56893 10763 ft 359 kts 270°
2026-04-27 18:58 -8.76688 114.54367 10895 ft 369 kts 287°
2026-04-27 18:58 -8.75532 114.52043 11033 ft 376 kts 309°
2026-04-27 18:59 -8.73577 114.50264 11186 ft 382 kts 327°
2026-04-27 18:59 -8.71326 114.48807 11441 ft 387 kts 330°
2026-04-27 18:59 -8.69030 114.47370 11753 ft 389 kts 329°
2026-04-27 18:59 -8.66730 114.45923 12108 ft 391 kts 329°
2026-04-27 19:00 -8.64417 114.44461 12463 ft 393 kts 329°
2026-04-27 19:00 -8.62090 114.42986 12833 ft 394 kts 329°
2026-04-27 19:00 -8.59766 114.41507 13201 ft 396 kts 329°
2026-04-27 19:00 -8.57432 114.40021 13549 ft 398 kts 329°
2026-04-27 19:01 -8.55090 114.38529 13856 ft 400 kts 329°
2026-04-27 19:01 -8.52729 114.37025 14154 ft 401 kts 329°
2026-04-27 19:01 -8.50367 114.35520 14470 ft 402 kts 329°
2026-04-27 19:01 -8.47998 114.34011 14760 ft 404 kts 329°
2026-04-27 19:02 -8.45613 114.32492 15074 ft 405 kts 329°
2026-04-27 19:02 -8.43226 114.30972 15398 ft 406 kts 329°
2026-04-27 19:02 -8.40827 114.29444 15704 ft 408 kts 329°
2026-04-27 19:02 -8.38425 114.27915 16001 ft 409 kts 329°
2026-04-27 19:03 -8.36011 114.26379 16303 ft 411 kts 329°
2026-04-27 19:03 -8.33587 114.24836 16616 ft 412 kts 329°
2026-04-27 19:03 -8.31323 114.23395 16896 ft 414 kts 329°
2026-04-27 19:03 -8.29714 114.22371 17109 ft 414 kts 329°
2026-04-27 19:04 -8.26454 114.20297 17579 ft 414 kts 329°
2026-04-27 19:04 -8.23975 114.18816 17847 ft 415 kts 335°
2026-04-27 19:04 -8.21261 114.17862 18109 ft 414 kts 351°
2026-04-27 19:04 -8.18398 114.17713 18309 ft 414 kts
2026-04-27 19:05 -8.15620 114.18430 18544 ft 413 kts 21°
2026-04-27 19:05 -8.12960 114.19535 18772 ft 414 kts 24°
2026-04-27 19:05 -8.10312 114.20698 19003 ft 416 kts 24°
2026-04-27 19:05 -8.07656 114.21869 19231 ft 417 kts 24°
2026-04-27 19:06 -8.04992 114.23040 19479 ft 418 kts 24°
2026-04-27 19:06 -8.02317 114.24214 19703 ft 420 kts 24°
2026-04-27 19:06 -7.99632 114.25390 19934 ft 421 kts 24°
2026-04-27 19:06 -7.96925 114.26533 20138 ft 423 kts 20°
2026-04-27 19:07 -7.94115 114.27427 20368 ft 425 kts 16°
2026-04-27 19:07 -7.91250 114.28217 20564 ft 427 kts 15°
2026-04-27 19:07 -7.88380 114.28992 20775 ft 428 kts 15°
2026-04-27 19:07 -7.85495 114.29772 21001 ft 429 kts 15°
2026-04-27 19:08 -7.82608 114.30554 21205 ft 431 kts 15°
2026-04-27 19:08 -7.79708 114.31341 21422 ft 432 kts 15°
2026-04-27 19:08 -7.76805 114.32130 21623 ft 433 kts 15°
2026-04-27 19:08 -7.73887 114.32923 21813 ft 435 kts 15°
2026-04-27 19:09 -7.70964 114.33717 22025 ft 436 kts 15°
2026-04-27 19:09 -7.68033 114.34514 22211 ft 437 kts 15°
2026-04-27 19:09 -7.65092 114.35314 22408 ft 438 kts 15°
2026-04-27 19:09 -7.62139 114.36117 22603 ft 440 kts 15°
2026-04-27 19:10 -7.59184 114.36920 22803 ft 441 kts 15°
2026-04-27 19:10 -7.56222 114.37725 22987 ft 442 kts 15°
2026-04-27 19:10 -7.53246 114.38528 23176 ft 443 kts 14°
2026-04-27 19:10 -7.51250 114.38967 23286 ft 444 kts 10°
2026-04-27 19:11 -7.47126 114.39231 23523 ft 446 kts 357°
2026-04-27 19:11 -7.44046 114.38796 23658 ft 448 kts 347°
2026-04-27 19:11 -7.41078 114.37821 23777 ft 451 kts 337°
2026-04-27 19:11 -7.38275 114.36377 23930 ft 453 kts 331°
2026-04-27 19:12 -7.35543 114.34782 24064 ft 455 kts 330°
2026-04-27 19:12 -7.32813 114.33168 24211 ft 456 kts 330°
2026-04-27 19:12 -7.30074 114.31553 24380 ft 456 kts 331°
2026-04-27 19:12 -7.27333 114.29944 24524 ft 457 kts 331°
2026-04-27 19:13 -7.24577 114.28329 24652 ft 459 kts 331°
2026-04-27 19:13 -7.21810 114.26710 24785 ft 460 kts 331°
2026-04-27 19:13 -7.19033 114.25087 24938 ft 461 kts 331°
2026-04-27 19:13 -7.16258 114.23466 25095 ft 462 kts 331°
2026-04-27 19:14 -7.13471 114.21838 25234 ft 463 kts 331°
2026-04-27 19:14 -7.10681 114.20209 25383 ft 464 kts 331°
2026-04-27 19:14 -7.07885 114.18577 25539 ft 465 kts 331°
2026-04-27 19:14 -7.05085 114.16943 25686 ft 466 kts 331°
2026-04-27 19:15 -7.02275 114.15303 25834 ft 467 kts 331°
2026-04-27 19:15 -6.99453 114.13657 25986 ft 469 kts 331°
2026-04-27 19:15 -6.96630 114.12009 26124 ft 470 kts 331°
2026-04-27 19:15 -6.93798 114.10358 26286 ft 471 kts 331°
2026-04-27 19:16 -6.90962 114.08703 26413 ft 473 kts 331°
2026-04-27 19:16 -6.89077 114.07604 26496 ft 474 kts 331°
2026-04-27 19:16 -6.85255 114.05376 26702 ft 475 kts 331°
2026-04-27 19:16 -6.82394 114.03708 26857 ft 476 kts 331°
2026-04-27 19:17 -6.79528 114.02037 27010 ft 477 kts 331°
2026-04-27 19:17 -6.76654 114.00362 27163 ft 478 kts 331°
2026-04-27 19:17 -6.73770 113.98682 27323 ft 479 kts 331°
2026-04-27 19:17 -6.70883 113.96999 27467 ft 480 kts 331°
2026-04-27 19:18 -6.67987 113.95313 27619 ft 482 kts 331°
2026-04-27 19:18 -6.65083 113.93621 27765 ft 483 kts 331°
2026-04-27 19:18 -6.62176 113.91928 27912 ft 484 kts 331°
2026-04-27 19:18 -6.59255 113.90227 28061 ft 485 kts 331°
2026-04-27 19:19 -6.56335 113.88527 28212 ft 486 kts 331°
2026-04-27 19:19 -6.53404 113.86820 28365 ft 487 kts 331°
2026-04-27 19:19 -6.50469 113.85112 28488 ft 488 kts 331°
2026-04-27 19:19 -6.47522 113.83397 28646 ft 489 kts 331°
2026-04-27 19:20 -6.44569 113.81686 28761 ft 490 kts 331°
2026-04-27 19:20 -6.41610 113.79982 28899 ft 491 kts 331°
2026-04-27 19:20 -6.38642 113.78276 29028 ft 492 kts 331°
2026-04-27 19:20 -6.35665 113.76566 29134 ft 493 kts 331°
2026-04-27 19:21 -6.32682 113.74853 29247 ft 494 kts 331°
2026-04-27 19:21 -6.29696 113.73138 29403 ft 495 kts 331°
2026-04-27 19:21 -6.26703 113.71418 29505 ft 496 kts 332°
2026-04-27 19:22 -6.20694 113.67966 29671 ft 499 kts 332°
2026-04-27 19:22 -6.17722 113.66259 29787 ft 499 kts 332°
2026-04-27 19:22 -6.14662 113.64501 29896 ft 500 kts 332°
2026-04-27 19:23 -6.08606 113.61023 30086 ft 502 kts 332°
2026-04-27 19:23 -6.02537 113.57537 30246 ft 503 kts 332°
2026-04-27 19:23 -5.99491 113.55789 30351 ft 504 kts 332°
2026-04-27 19:24 -5.96441 113.54038 30430 ft 505 kts 332°
2026-04-27 19:24 -5.90332 113.50532 30511 ft 509 kts 332°
2026-04-27 19:25 -5.84176 113.47001 30674 ft 510 kts 332°
2026-04-27 19:25 -5.78004 113.43461 30857 ft 511 kts 332°
2026-04-27 19:25 -5.74918 113.41691 30988 ft 510 kts 331°
2026-04-27 19:26 -5.71839 113.39925 31187 ft 508 kts 331°
2026-04-27 19:26 -5.68813 113.38190 31317 ft 508 kts 331°
2026-04-27 19:26 -5.65704 113.36408 31440 ft 508 kts 331°
2026-04-27 19:26 -5.62676 113.34672 31541 ft 508 kts 331°
2026-04-27 19:27 -5.59608 113.32914 31674 ft 507 kts 332°
2026-04-27 19:27 -5.56546 113.31158 31794 ft 507 kts 332°
2026-04-27 19:27 -5.53483 113.29404 31919 ft 507 kts 332°
2026-04-27 19:27 -5.50425 113.27652 32043 ft 506 kts 332°
2026-04-27 19:28 -5.47368 113.25901 32148 ft 506 kts 332°
2026-04-27 19:28 -5.44309 113.24148 32266 ft 506 kts 332°
2026-04-27 19:28 -5.41217 113.22378 32395 ft 505 kts 332°
2026-04-27 19:28 -5.38163 113.20629 32498 ft 505 kts 332°
2026-04-27 19:29 -5.35111 113.18881 32622 ft 505 kts 332°
2026-04-27 19:29 -5.32103 113.17159 32748 ft 504 kts 332°
2026-04-27 19:29 -5.29017 113.15392 32866 ft 504 kts 332°
2026-04-27 19:29 -5.26011 113.13672 32981 ft 504 kts 332°
2026-04-27 19:30 -5.22921 113.11903 33027 ft 506 kts 332°
2026-04-27 19:30 -5.16841 113.08425 33195 ft 506 kts 331°
2026-04-27 19:31 -5.11723 113.05497 33431 ft 505 kts 331°
2026-04-27 19:31 -5.07681 113.03185 33552 ft 505 kts 331°
2026-04-27 19:31 -5.04631 113.01440 33671 ft 505 kts 331°
2026-04-27 19:32 -4.99519 112.98517 33817 ft 506 kts 331°
2026-04-27 19:32 -4.93363 112.94998 33827 ft 511 kts 331°
2026-04-27 19:33 -4.87188 112.91468 33829 ft 510 kts 331°
2026-04-27 19:33 -4.81031 112.87949 33832 ft 509 kts 331°
2026-04-27 19:34 -4.74872 112.84430 33836 ft 509 kts 331°
2026-04-27 19:34 -4.68716 112.80913 33833 ft 509 kts 331°
2026-04-27 19:35 -4.62558 112.77397 33832 ft 509 kts 331°
2026-04-27 19:35 -4.56398 112.73880 33834 ft 510 kts 331°
2026-04-27 19:36 -4.50240 112.70364 33831 ft 509 kts 331°
2026-04-27 19:36 -4.44092 112.66855 33833 ft 509 kts 331°
2026-04-27 19:37 -4.37955 112.63352 33831 ft 509 kts 331°
2026-04-27 19:37 -4.31790 112.59834 33831 ft 509 kts 331°
2026-04-27 19:38 -4.25643 112.56328 33834 ft 509 kts 331°
2026-04-27 19:38 -4.19495 112.52821 33831 ft 508 kts 331°
2026-04-27 19:39 -4.13351 112.49317 33835 ft 508 kts 331°
2026-04-27 19:39 -4.07212 112.45817 33830 ft 508 kts 331°
2026-04-27 19:40 -4.01079 112.42322 33831 ft 508 kts 331°
2026-04-27 19:40 -3.94922 112.38813 33831 ft 509 kts 331°
2026-04-27 19:41 -3.88767 112.35305 33837 ft 509 kts 331°
2026-04-27 19:41 -3.82623 112.31804 33835 ft 508 kts 331°
2026-04-27 19:42 -3.76486 112.28308 33835 ft 507 kts 331°
2026-04-27 19:42 -3.70354 112.24816 33833 ft 507 kts 331°
2026-04-27 19:43 -3.64223 112.21324 33836 ft 507 kts 331°
2026-04-27 19:43 -3.58083 112.17828 33838 ft 507 kts 331°
2026-04-27 19:44 -3.51950 112.14336 33842 ft 507 kts 331°
2026-04-27 19:44 -3.45806 112.10840 33841 ft 509 kts 331°
2026-04-27 19:45 -3.39649 112.07336 33842 ft 509 kts 331°
2026-04-27 19:45 -3.33493 112.03833 33841 ft 509 kts 331°
2026-04-27 19:46 -3.27338 112.00331 33840 ft 509 kts 331°
2026-04-27 19:46 -3.21181 111.96828 33841 ft 509 kts 331°
2026-04-27 19:47 -3.15021 111.93324 33841 ft 509 kts 331°
2026-04-27 19:47 -3.08866 111.89823 33840 ft 509 kts 331°
2026-04-27 19:48 -3.02709 111.86323 33841 ft 509 kts 331°
2026-04-27 19:48 -2.96553 111.82823 33840 ft 509 kts 331°
2026-04-27 19:49 -2.90391 111.79320 33845 ft 509 kts 331°
2026-04-27 19:49 -2.84235 111.75820 33843 ft 509 kts 331°
2026-04-27 19:50 -2.78075 111.72320 33844 ft 509 kts 331°
2026-04-27 19:50 -2.72005 111.68652 33843 ft 510 kts 323°
2026-04-27 19:51 -2.66556 111.64108 33841 ft 510 kts 319°
2026-04-27 19:51 -2.61259 111.59385 33842 ft 510 kts 319°
2026-04-27 19:52 -2.55982 111.54630 33845 ft 510 kts 319°
2026-04-27 19:52 -2.50698 111.49889 33842 ft 510 kts 319°
2026-04-27 19:53 -2.42761 111.42797 33842 ft 516 kts 319°
2026-04-27 19:53 -2.37348 111.37966 33847 ft 519 kts 319°
2026-04-27 19:54 -2.31969 111.33163 33849 ft 518 kts 319°
2026-04-27 19:54 -2.26588 111.28359 33848 ft 518 kts 319°
2026-04-27 19:55 -2.21244 111.23589 33848 ft 518 kts 319°
2026-04-27 19:55 -2.15867 111.18790 33848 ft 518 kts 319°
2026-04-27 19:56 -2.10487 111.13987 33848 ft 520 kts 319°
2026-04-27 19:56 -2.05090 111.09173 33849 ft 517 kts 319°
2026-04-27 19:57 -1.99746 111.04391 33852 ft 515 kts 319°
2026-04-27 19:57 -1.94415 110.99608 33854 ft 515 kts 319°
2026-04-27 19:58 -1.89081 110.94825 33853 ft 515 kts 319°
2026-04-27 19:58 -1.83750 110.90049 33857 ft 515 kts 319°
2026-04-27 19:59 -1.78414 110.85269 33858 ft 515 kts 319°
2026-04-27 19:59 -1.73088 110.80500 33856 ft 513 kts 319°
2026-04-27 20:00 -1.67744 110.75716 33860 ft 519 kts 318°
2026-04-27 20:00 -1.62346 110.70883 33856 ft 522 kts 318°
2026-04-27 20:01 -1.56945 110.66046 33857 ft 521 kts 318°
2026-04-27 20:01 -1.51550 110.61215 33856 ft 521 kts 318°
2026-04-27 20:02 -1.46155 110.56385 33856 ft 521 kts 318°
2026-04-27 20:02 -1.44369 110.54786 33857 ft 521 kts 318°